Wind_Speed
2 1 1 1 0 1 1 2 3 3 3 4 4 4 3 3 3 3 3 4 4 4 4 4 4 4 4 4 4 3 3 3 3 3 3 4 4 5 5 5 6 6 7
2 2 2 1 1 1 2 3 3 4 4 4 4 5 5 5 5 4 4 4 4 3 3 4 3 3 3 3 3 2 2 2 3 2 2 2 3 3 4 4 5 6 6
3 3 3 2 1 2 3 4 4 5 5 5 5 6 6 6 6 6 6 5 5 4 4 4 4 4 3 3 3 2 2 2 2 1 1 1 2 2 3 4 4 5 5
5 4 3 3 3 3 4 5 6 6 6 7 7 7 7 7 8 8 7 7 6 5 5 5 5 4 4 4 4 3 3 3 2 2 2 1 1 2 2 3 4 4 4
5 5 4 4 5 5 6 7 8 8 8 9 9 9 9 9 9 9 9 8 8 7 7 6 6 6 6 5 5 5 5 4 3 3 3 2 1 2 2 2 3 3 3
6 5 5 6 6 7 7 8 9 9 10 10 11 11 11 11 10 10 10 10 9 9 8 8 8 7 7 7 7 7 7 6 5 5 4 3 3 2 2 2 2 2 3
7 7 6 7 8 8 8 9 10 11 11 12 12 12 12 12 12 11 11 11 11 11 10 10 9 9 8 8 8 8 8 8 7 6 6 5 5 4 4 3 3 3 3
7 8 7 8 8 9 10 10 11 12 13 13 14 14 14 13 13 13 13 13 13 13 12 12 12 11 11 10 10 10 10 10 9 8 8 7 7 6 6 5 5 4 4
7 8 8 9 9 10 11 12 13 13 14 15 15 15 15 15 15 15 15 15 15 14 14 14 14 14 13 13 12 11 11 11 11 11 10 10 9 8 8 7 7 6 6
8 8 9 10 11 12 13 14 15 15 16 16 16 17 17 18 18 18 18 18 17 17 16 16 16 16 15 15 14 13 13 13 13 12 12 12 11 11 10 10 9 8 8
9 10 10 11 12 14 15 16 18 18 18 18 19 20 21 21 21 21 20 19 19 19 18 18 18 18 17 17 17 16 16 16 15 14 14 15 14 13 13 12 12 11 10
12 12 12 13 14 15 17 18 19 19 19 20 22 23 23 23 24 22 21 20 20 21 20 20 20 20 19 19 19 19 18 18 17 17 17 16 16 16 15 15 15 14 13
13 14 13 15 16 17 18 19 19 19 20 21 23 23 23 23 24 24 22 21 20 19 20 21 21 21 20 20 20 20 20 19 18 18 17 18 18 18 18 17 17 17 17
15 15 15 16 18 19 20 20 20 19 21 21 21 22 21 21 20 21 21 20 19 19 18 19 21 20 21 21 21 21 21 20 20 18 18 19 19 19 20 20 20 19 20
16 16 16 17 18 20 21 21 19 20 20 20 19 19 19 19 19 20 19 18 18 18 18 18 19 20 19 19 19 20 20 20 20 20 20 20 20 20 21 23 22 22 21
15 17 17 18 18 19 20 21 19 19 19 18 17 18 19 19 19 19 19 18 19 19 18 19 20 21 20 20 20 20 21 22 22 22 22 22 22 22 22 23 24 25 24
17 18 18 18 18 19 19 19 17 18 17 17 17 18 19 19 20 19 19 20 20 20 21 21 21 21 21 21 22 22 22 22 23 24 23 23 24 24 25 25 26 27 27
16 17 17 18 19 19 17 16 15 17 16 17 18 18 18 19 20 20 20 21 21 22 22 23 23 22 23 24 24 24 24 24 25 25 25 24 25 25 26 27 27 28 29
15 15 15 16 16 16 16 15 15 16 16 17 18 19 19 20 21 22 23 22 23 23 24 24 24 24 25 25 26 26 26 26 26 26 27 27 27 26 26 28 28 29 30
14 14 14 14 14 14 14 15 16 17 18 18 19 20 21 22 23 24 25 25 25 26 26 26 26 26 27 27 27 27 27 27 27 28 29 29 28 28 28 28 28 29 30
13 13 13 14 14 15 14 15 17 17 18 19 20 21 23 24 25 26 27 27 27 27 27 27 27 27 27 28 28 28 28 28 28 28 29 30 30 30 30 30 29 29 30
11 12 12 14 14 15 16 16 17 17 19 21 22 23 24 25 26 27 27 27 27 27 27 27 27 27 27 27 27 28 28 29 30 29 30 31 31 31 31 32 31 31 31
11 12 13 13 15 15 16 16 17 19 21 22 23 24 25 25 26 26 26 27 27 27 27 27 27 27 27 28 27 28 28 29 30 30 31 31 32 32 32 33 34 33 32
11 12 12 13 14 15 16 17 19 20 22 23 24 24 24 25 25 26 26 27 27 27 27 27 27 27 27 27 27 28 29 29 30 30 32 32 32 32 33 33 34 34 34
9 10 11 13 15 16 17 19 20 22 23 23 24 24 25 25 26 26 26 26 26 26 27 27 27 27 27 28 28 28 29 29 30 31 31 32 32 32 33 34 35 34 35
9 11 12 14 16 17 18 19 20 22 23 23 24 24 25 26 26 26 26 26 26 27 27 27 27 28 28 29 29 29 29 30 30 31 32 33 33 33 34 34 35 36 35
Wind_Direction
252 245 263 261 98 12 349 338 336 335 338 342 343 348 351 352 358 3 9 19 27 30 30 32 36 37 33 33 37 41 44 47 53 58 65 75 84 91 93 96 101 103 104
276 276 275 264 259 307 320 319 322 324 322 323 328 331 331 329 330 331 332 338 349 358 2 3 6 10 10 5 6 13 20 30 37 43 54 76 89 97 99 97 103 109 109
281 289 283 272 282 303 312 313 313 316 316 315 317 319 319 319 317 316 315 317 323 332 338 339 338 341 343 339 329 328 337 351 7 16 28 88 108 113 110 106 106 108 113
278 282 287 285 291 302 309 309 309 310 310 311 311 310 310 311 310 308 307 308 312 316 320 321 322 322 321 317 312 300 302 305 314 309 293 248 160 150 139 127 115 113 115
276 271 278 287 293 298 302 302 303 304 304 306 306 305 304 305 304 301 301 301 303 306 308 308 307 306 304 301 298 286 286 286 284 282 283 270 226 191 171 152 137 131 129
269 270 275 285 295 297 298 299 301 303 304 303 303 303 301 300 300 298 296 297 297 298 300 300 301 299 296 291 288 279 276 276 276 272 271 265 251 228 209 189 172 161 151
267 268 278 287 294 296 298 300 302 304 304 302 302 301 298 296 295 295 293 293 293 293 293 292 292 292 293 289 285 277 272 270 270 266 265 262 257 243 231 217 205 198 190
270 275 281 288 295 298 299 300 300 301 302 302 300 299 296 294 293 292 290 289 288 287 286 286 286 285 285 285 285 279 272 269 263 260 257 256 254 249 240 232 224 218 213
279 277 283 289 295 297 296 295 295 297 298 299 297 297 294 290 288 287 285 283 283 283 281 282 283 282 280 279 279 278 274 271 266 260 256 252 249 249 246 240 233 229 227
283 283 285 290 294 296 295 292 291 292 293 292 292 292 291 289 286 283 281 279 277 277 276 277 279 281 280 276 274 273 272 270 269 264 257 252 247 246 246 243 239 234 232
285 289 293 292 294 295 293 291 291 290 290 288 288 287 285 283 282 279 277 276 274 271 271 272 274 276 277 274 271 272 271 269 267 263 260 255 248 246 245 244 240 237 235
286 290 295 291 290 294 293 291 290 289 290 290 289 290 288 283 279 278 275 275 273 269 268 267 268 271 273 272 270 270 269 267 265 262 260 259 253 248 245 244 241 239 237
286 291 299 298 295 295 293 294 294 292 292 291 289 290 291 288 282 279 279 278 277 276 271 263 262 266 271 270 267 267 267 264 264 262 258 256 257 252 247 243 242 240 239
282 288 294 297 294 292 292 292 293 292 293 294 296 296 293 294 292 285 283 281 280 283 281 274 267 266 270 266 265 264 263 263 263 261 257 254 253 251 246 244 242 241 240
279 285 291 295 292 293 292 292 292 291 296 298 299 298 296 298 299 295 288 286 284 285 282 279 278 270 270 267 267 265 263 263 261 257 256 254 251 252 250 246 243 242 241
281 284 288 290 293 295 297 294 293 295 298 299 301 300 299 300 301 299 293 288 287 285 285 285 281 277 274 272 269 266 262 260 259 260 258 256 254 252 250 248 246 243 241
280 285 287 292 294 295 297 294 295 299 301 303 303 304 302 301 301 301 297 293 290 287 287 287 287 283 278 278 274 270 266 263 260 260 259 256 254 253 251 249 248 245 242
282 287 289 290 291 291 296 297 297 299 300 303 306 307 305 304 303 302 300 296 294 294 293 290 288 284 280 278 276 273 269 267 262 259 258 257 255 254 252 251 249 246 244
283 287 290 292 294 296 295 293 294 297 299 301 304 304 303 303 303 301 301 299 297 294 293 290 288 285 281 279 276 274 273 270 266 261 259 257 257 256 255 251 250 248 244
280 286 291 294 297 298 295 293 295 297 300 302 303 303 303 303 302 301 300 298 295 293 292 290 288 285 281 279 276 274 272 271 267 263 260 259 258 258 257 253 250 249 245
285 288 291 294 297 300 301 299 297 299 302 304 305 305 304 303 302 301 299 298 296 294 292 290 287 284 282 280 277 274 272 271 268 264 261 260 259 258 256 253 249 247 247
290 293 293 294 298 301 302 302 303 305 306 306 307 307 306 305 304 302 301 299 297 295 294 292 288 285 284 281 279 275 273 271 269 267 264 261 259 257 255 253 250 248 247
289 294 295 297 301 305 308 310 309 309 309 310 310 309 309 308 306 305 304 302 299 297 295 293 289 287 285 283 280 277 273 270 269 268 265 262 260 257 256 253 250 249 248
295 301 302 306 309 311 313 312 312 311 312 312 313 312 311 310 309 308 306 304 302 299 296 294 291 288 286 284 282 279 276 273 269 267 266 264 262 260 258 254 251 249 247
308 310 312 313 314 314 314 313 314 315 315 316 315 315 314 313 312 311 309 307 305 303 300 297 294 291 289 286 284 281 278 275 272 268 266 265 263 261 258 255 252 249 247
316 318 318 317 318 319 318 317 317 317 317 317 317 317 316 315 314 313 311 309 307 305 303 300 297 295 292 289 286 283 280 277 274 270 267 265 264 262 259 256 252 248 247
Height
5909 5909 5909 5910 5910 5910 5910 5910 5910 5909 5909 5909 5908 5908 5907 5907 5906 5905 5905 5904 5904 5903 5903 5902 5902 5901 5901 5901 5900 5900 5900 5900 5900 5900 5900 5900 5901 5901 5902 5902 5903 5903 5904
5908 5908 5909 5909 5909 5910 5910 5910 5910 5910 5909 5909 5908 5908 5908 5907 5906 5906 5905 5905 5904 5904 5903 5903 5902 5902 5901 5901 5901 5901 5901 5901 5901 5901 5901 5901 5902 5902 5902 5903 5904 5905 5905
5907 5908 5908 5909 5909 5909 5909 5910 5909 5909 5909 5909 5908 5908 5908 5907 5906 5906 5905 5905 5904 5904 5904 5903 5903 5902 5902 5902 5901 5901 5901 5901 5901 5901 5902 5902 5902 5903 5903 5904 5905 5906 5906
5906 5907 5908 5908 5908 5909 5909 5909 5909 5909 5909 5908 5908 5908 5907 5907 5906 5906 5905 5905 5904 5904 5903 5903 5902 5902 5902 5902 5901 5901 5902 5902 5902 5902 5902 5902 5903 5903 5904 5905 5905 5906 5907
5905 5906 5907 5907 5907 5908 5908 5908 5908 5908 5908 5907 5907 5907 5907 5906 5906 5905 5904 5904 5904 5903 5903 5903 5902 5902 5902 5901 5901 5901 5902 5902 5902 5902 5902 5903 5903 5904 5904 5905 5906 5907 5908
5904 5905 5905 5906 5906 5906 5907 5907 5907 5907 5907 5906 5906 5906 5905 5905 5904 5904 5903 5903 5903 5902 5902 5902 5902 5901 5901 5901 5900 5901 5901 5901 5902 5902 5902 5903 5903 5904 5905 5905 5906 5907 5908
5903 5903 5904 5904 5905 5905 5905 5905 5905 5905 5905 5905 5905 5904 5904 5903 5903 5902 5902 5902 5901 5901 5901 5901 5900 5900 5900 5900 5899 5900 5900 5901 5901 5901 5902 5903 5903 5904 5905 5906 5906 5907 5908
5901 5902 5902 5903 5903 5903 5904 5904 5904 5904 5904 5903 5903 5902 5902 5902 5901 5901 5900 5900 5900 5899 5899 5899 5899 5899 5899 5898 5898 5898 5899 5899 5900 5900 5901 5902 5903 5904 5904 5905 5906 5907 5908
5899 5900 5900 5901 5901 5902 5902 5902 5902 5902 5901 5901 5901 5900 5900 5899 5899 5899 5898 5898 5897 5897 5897 5897 5897 5897 5897 5897 5896 5897 5897 5897 5898 5899 5900 5900 5901 5902 5904 5905 5906 5907 5908
5896 5897 5898 5899 5899 5900 5900 5900 5900 5899 5899 5899 5898 5897 5897 5897 5896 5896 5895 5895 5894 5894 5894 5894 5895 5895 5895 5894 5894 5894 5895 5895 5896 5897 5898 5898 5899 5901 5902 5903 5905 5906 5907
5894 5894 5896 5897 5897 5897 5898 5897 5897 5897 5896 5896 5895 5895 5894 5893 5892 5892 5891 5890 5890 5891 5891 5891 5892 5892 5892 5892 5892 5892 5892 5892 5893 5894 5895 5896 5897 5898 5900 5902 5903 5905 5906
5892 5893 5894 5894 5894 5895 5895 5895 5894 5894 5893 5893 5892 5891 5890 5889 5888 5887 5887 5886 5886 5887 5887 5888 5888 5888 5888 5888 5889 5888 5888 5889 5890 5891 5891 5893 5894 5896 5897 5899 5901 5903 5904
5889 5890 5891 5892 5891 5892 5892 5891 5890 5890 5890 5889 5888 5887 5886 5885 5884 5883 5883 5883 5882 5882 5882 5883 5883 5884 5884 5884 5884 5884 5884 5885 5886 5887 5889 5890 5891 5893 5894 5896 5898 5900 5902
5887 5887 5888 5889 5889 5889 5888 5888 5887 5887 5886 5885 5884 5882 5882 5881 5880 5879 5879 5879 5878 5878 5878 5878 5879 5879 5879 5879 5880 5880 5880 5881 5882 5883 5884 5885 5887 5889 5891 5893 5895 5897 5899
5884 5885 5885 5886 5886 5885 5885 5884 5884 5882 5881 5881 5880 5879 5878 5877 5877 5875 5874 5874 5873 5874 5874 5874 5874 5874 5875 5875 5875 5876 5876 5877 5878 5879 5881 5881 5881 5884 5887 5889 5891 5893 5895
5881 5882 5882 5882 5882 5881 5881 5880 5879 5879 5878 5877 5876 5876 5874 5873 5873 5872 5871 5871 5870 5870 5870 5870 5870 5870 5870 5870 5871 5871 5872 5873 5874 5874 5876 5877 5878 5880 5882 5884 5886 5889 5891
5877 5879 5879 5879 5878 5878 5877 5876 5875 5875 5875 5873 5873 5872 5871 5870 5869 5868 5867 5867 5866 5866 5865 5865 5865 5865 5865 5865 5866 5866 5867 5868 5868 5869 5870 5872 5874 5875 5877 5879 5881 5883 5886
5874 5875 5876 5876 5875 5874 5874 5873 5873 5872 5871 5870 5870 5869 5867 5866 5865 5864 5863 5862 5862 5861 5861 5860 5860 5860 5860 5860 5860 5861 5861 5862 5862 5863 5865 5866 5868 5870 5871 5873 5875 5877 5880
5872 5872 5873 5873 5871 5871 5871 5870 5870 5870 5869 5868 5867 5865 5864 5863 5862 5860 5859 5858 5857 5856 5856 5855 5854 5854 5854 5854 5854 5855 5855 5856 5856 5857 5859 5860 5862 5864 5865 5866 5868 5870 5873
5869 5870 5870 5870 5869 5868 5868 5867 5867 5867 5866 5864 5863 5862 5860 5859 5858 5856 5855 5854 5852 5851 5850 5849 5848 5848 5848 5847 5848 5848 5848 5849 5849 5851 5852 5853 5855 5856 5858 5860 5861 5863 5866
5867 5867 5868 5868 5867 5866 5865 5865 5864 5863 5863 5861 5860 5859 5857 5855 5853 5851 5850 5848 5847 5845 5844 5843 5842 5841 5841 5840 5840 5841 5841 5841 5842 5843 5844 5846 5848 5849 5851 5852 5854 5856 5859
5865 5865 5866 5866 5865 5864 5863 5862 5861 5860 5859 5857 5856 5854 5852 5850 5848 5846 5844 5842 5840 5839 5838 5837 5835 5834 5834 5833 5833 5833 5834 5834 5834 5836 5837 5838 5840 5841 5843 5845 5847 5849 5852
5863 5863 5863 5863 5862 5861 5860 5859 5857 5856 5855 5853 5851 5849 5847 5845 5843 5840 5838 5836 5834 5833 5831 5830 5829 5828 5827 5826 5826 5826 5826 5827 5827 5828 5828 5830 5831 5833 5835 5837 5839 5841 5844
5861 5861 5860 5860 5859 5858 5857 5855 5854 5853 5851 5849 5847 5845 5842 5840 5838 5835 5833 5831 5828 5826 5825 5823 5822 5821 5820 5819 5818 5818 5818 5818 5819 5820 5820 5821 5823 5825 5826 5828 5831 5834 5836
5859 5859 5858 5857 5856 5855 5853 5852 5850 5848 5846 5844 5842 5840 5837 5835 5833 5830 5828 5825 5823 5821 5818 5817 5815 5814 5812 5812 5811 5810 5810 5810 5810 5811 5812 5813 5814 5816 5817 5819 5822 5825 5826
5857 5857 5856 5855 5853 5852 5850 5848 5847 5844 5842 5840 5838 5835 5833 5830 5828 5825 5823 5820 5817 5815 5812 5810 5808 5807 5805 5804 5803 5802 5802 5802 5802 5802 5803 5804 5805 5807 5808 5810 5813 5816 5818